FW8528 Weather Reports


Display with metric or nautical units.
time (UTC)temp
F
wind
direction
speed
MPH
gust
MPH
rain 1hr
in
rain 24hr
in
rain mn
in
humidity
%
barometer
mb
20260504202233 73 253 1.0 1.0 0.00 0.00 0.00 60 1010.6
20260504201730 73 252 2.0 2.0 0.00 0.00 0.00 59 1010.6
20260504201227 75 221 2.0 2.0 0.00 0.00 0.00 59 1010.6
20260504200725 73 320 1.0 1.0 0.00 0.00 0.00 64 1010.6
20260504200220 72 248 2.0 2.0 0.00 0.00 0.00 62 1010.6
20260504195717 74 151 5.0 6.0 0.00 0.00 0.00 59 1010.6
20260504195213 74 180 2.0 2.0 0.00 0.00 0.00 62 1010.6
20260504194710 75 238 1.0 1.0 0.00 0.00 0.00 59 1010.6
20260504194206 73 107 1.0 3.0 0.00 0.00 0.00 61 1010.9
20260504193702 73 131 2.0 2.0 0.00 0.00 0.00 62 1010.9
20260504193200 71 127 3.0 3.0 0.00 0.00 0.00 63 1010.9
20260504192658 71 242 1.0 1.0 0.00 0.00 0.00 62 1010.9
20260504192156 70 167 2.0 3.0 0.00 0.00 0.00 67 1010.9
20260504191654 69 180 2.0 3.0 0.00 0.00 0.00 72 1010.9
20260504191150 71 143 2.0 2.0 0.00 0.00 0.00 67 1010.9
20260504190646 71 210 3.0 3.0 0.00 0.00 0.00 65 1010.9
20260504190143 70 165 2.0 2.0 0.00 0.00 0.00 66 1010.9
20260504185639 68 180 4.0 7.0 0.00 0.00 0.00 70 1011.3
20260504185136 68 220 1.0 1.0 0.00 0.00 0.00 70 1011.3
20260504184632 67 168 3.0 3.0 0.00 0.00 0.00 71 1011.3
20260504184127 68 221 3.0 3.0 0.00 0.00 0.00 70 1011.3
20260504183624 68 150 3.0 3.0 0.00 0.00 0.00 71 1011.3
20260504183122 68 131 4.0 5.0 0.00 0.00 0.00 69 1010.9
20260504182620 68 261 1.0 1.0 0.00 0.00 0.00 69 1010.9
20260504182117 68 25 1.0 2.0 0.00 0.00 0.00 70 1010.9
20260504181614 67 174 3.0 7.0 0.00 0.00 0.00 71 1010.9
20260504181112 67 182 0.0 1.0 0.00 0.00 0.00 72 1011.3
20260504180611 67 202 4.0 5.0 0.00 0.00 0.00 71 1011.3
20260504180109 68 261 1.0 1.0 0.00 0.00 0.00 70 1010.9
20260504175606 67 259 3.0 3.0 0.00 0.00 0.00 71 1010.9
20260504175103 66 175 2.0 2.0 0.00 0.00 0.00 72 1011.3
20260504174601 66 192 2.0 3.0 0.00 0.00 0.00 73 1011.3
20260504174057 66 232 1.0 1.0 0.00 0.00 0.00 73 1010.9
20260504173554 66 132 3.0 3.0 0.00 0.00 0.00 73 1010.9
20260504173052 66 267 3.0 5.0 0.00 0.00 0.00 72 1011.3
20260504172547 66 123 3.0 5.0 0.00 0.00 0.00 72 1010.9
20260504172044 65 176 3.0 3.0 0.00 0.00 0.00 73 1010.9
20260504171541 65 233 0.0 0.0 0.00 0.00 0.00 75 1010.6
20260504171038 65 175 2.0 2.0 0.00 0.00 0.00 75 1010.9
20260504170534 65 167 0.0 0.0 0.00 0.00 0.00 74 1010.6
20260504150918 55 246 0.0 0.0 0.00 0.00 0.00 91 1010.3
20260504150415 55 247 0.0 0.0 0.00 0.00 0.00 92 1010.3
20260504140841 53 253 0.0 0.0 0.00 0.00 0.00 94 1009.9
20260504140337 53 253 0.0 0.0 0.00 0.00 0.00 92 1009.9
20260504130806 53 253 0.0 0.0 0.00 0.00 0.00 89 1009.9
20260504130302 53 253 0.0 0.0 0.00 0.00 0.00 89 1009.9
20260504120225 53 244 0.0 0.0 0.00 0.00 0.00 90 1009.6
20260504110653 53 244 0.0 0.0 0.00 0.00 0.00 89 1009.6
20260504110149 53 244 0.0 0.0 0.00 0.00 0.00 89 1009.6
20260504100615 55 244 0.0 0.0 0.00 0.00 0.00 85 1009.6
20260504100113 55 244 0.0 0.0 0.00 0.00 0.00 86 1009.6
20260504081506 55 243 0.0 0.0 0.00 0.00 0.00 95 1009.6
20260504081001 55 243 0.0 0.0 0.00 0.00 0.00 98 1009.9
20260504080458 55 243 0.0 0.0 0.00 0.00 0.00 98 1009.9
20260504050311 61 242 0.0 0.0 0.00 0.00 0.00 86 1009.6
20260504045808 61 242 0.0 0.0 0.00 0.00 0.00 82 1009.6
20260504045304 60 243 1.0 1.0 0.00 0.00 0.00 76 1009.9
20260504044800 61 241 0.0 0.0 0.00 0.00 0.00 86 1009.6
20260504044257 61 241 0.0 0.0 0.00 0.00 0.00 78 1009.6
20260504043754 61 242 0.0 0.0 0.00 0.00 0.00 74 1009.9
20260504043251 61 241 0.0 0.0 0.00 0.00 0.00 76 1009.9
20260504042749 62 241 0.0 0.0 0.00 0.00 0.00 82 1009.6
20260504042245 62 242 0.0 0.0 0.00 0.00 0.00 73 1009.9
20260504041742 63 242 0.0 0.0 0.00 0.00 0.00 75 1009.6
20260504041238 63 242 0.0 0.0 0.00 0.00 0.00 70 1009.9
20260504040734 63 241 0.0 0.0 0.00 0.00 0.00 84 1009.6
20260504040232 63 241 0.0 0.0 0.00 0.00 0.00 83 1009.6
20260504035727 64 241 0.0 0.0 0.00 0.00 0.00 77 1009.6
20260504035225 64 241 0.0 0.0 0.00 0.00 0.00 69 1009.6
20260504034722 65 241 0.0 0.0 0.00 0.00 0.00 80 1009.6
20260504034219 66 241 0.0 0.0 0.00 0.00 0.00 79 1009.6
20260504033717 66 241 0.0 0.0 0.00 0.00 0.00 66 1009.6
20260504033214 67 241 0.0 0.0 0.00 0.00 0.00 73 1009.6
20260504032711 68 271 0.0 0.0 0.00 0.00 0.00 56 1009.6
20260504032208 69 267 0.0 0.0 0.00 0.00 0.00 56 1009.6
20260504031705 69 268 0.0 1.0 0.00 0.00 0.00 52 1009.6
20260504031202 70 279 0.0 0.0 0.00 0.00 0.00 52 1009.6
20260504030658 70 217 1.0 1.0 0.00 0.00 0.00 51 1009.6
20260504030155 70 285 0.0 1.0 0.00 0.00 0.00 52 1009.6
20260504025652 70 259 1.0 1.0 0.00 0.00 0.00 53 1009.6
20260504025148 70 247 0.0 0.0 0.00 0.00 0.00 50 1009.6
20260504024646 69 292 0.0 1.0 0.00 0.00 0.00 60 1009.6
20260504024142 70 258 0.0 0.0 0.00 0.00 0.00 59 1009.2
20260504023639 70 240 0.0 0.0 0.00 0.00 0.00 69 1009.6
20260504023135 71 258 0.0 0.0 0.00 0.00 0.00 57 1009.6
20260504022631 71 254 0.0 0.0 0.00 0.00 0.00 53 1009.2
20260504022127 72 265 0.0 0.0 0.00 0.00 0.00 54 1009.2
20260504021626 72 253 0.0 1.0 0.00 0.00 0.00 53 1009.6
20260504021122 73 241 0.0 0.0 0.00 0.00 0.00 51 1009.6
20260504020619 73 257 0.0 0.0 0.00 0.00 0.00 51 1009.2
20260504020115 74 257 0.0 0.0 0.00 0.00 0.00 52 1009.6
20260504015612 75 266 0.0 0.0 0.00 0.00 0.00 49 1009.6
20260504015108 75 258 0.0 0.0 0.00 0.00 0.00 49 1009.6
20260504014604 76 258 0.0 0.0 0.00 0.00 0.00 46 1009.6
20260504014101 77 259 0.0 0.0 0.00 0.00 0.00 47 1009.6
20260504013559 78 262 0.0 0.0 0.00 0.00 0.00 44 1009.6
20260504013055 79 251 0.0 0.0 0.00 0.00 0.00 40 1009.6
20260504012553 79 257 0.0 0.0 0.00 0.00 0.00 44 1009.9
20260504012051 81 266 0.0 1.0 0.00 0.00 0.00 41 1009.9
20260504011547 81 233 0.0 1.0 0.00 0.00 0.00 41 1009.6
20260504011043 80 225 0.0 1.0 0.00 0.00 0.00 40 1009.9
20260504010539 80 245 0.0 0.0 0.00 0.00 0.00 36 1009.9
20260504010035 81 257 1.0 1.0 0.00 0.00 0.00 39 1009.9
20260504005532 81 227 1.0 3.0 0.00 0.00 0.00 35 1009.9
20260504005030 81 206 1.0 1.0 0.00 0.00 0.00 42 1009.6
20260504004527 82 233 0.0 1.0 0.00 0.00 0.00 38 1010.3
20260504004024 82 239 0.0 1.0 0.00 0.00 0.00 35 1009.9
20260504003520 83 277 1.0 2.0 0.00 0.00 0.00 34 1009.9
20260504003017 82 229 0.0 0.0 0.00 0.00 0.00 37 1009.9
20260504002514 82 228 1.0 1.0 0.00 0.00 0.00 38 1009.9
20260504002012 83 208 0.0 1.0 0.00 0.00 0.00 36 1009.9
20260504001509 83 249 1.0 2.0 0.00 0.00 0.00 34 1009.9
20260504001005 84 232 1.0 1.0 0.00 0.00 0.00 33 1009.9
20260504000503 84 228 1.0 1.0 0.00 0.00 0.00 32 1010.3
20260504000000 84 266 1.0 1.0 0.00 0.00 0.00 31 1009.9
20260503235458 84 273 1.0 1.0 0.00 0.00 0.00 31 1010.3
20260503234954 84 223 1.0 1.0 0.00 0.00 0.00 34 1010.3
20260503234452 84 177 1.0 2.0 0.00 0.00 0.00 41 1010.3
20260503233950 83 218 1.0 2.0 0.00 0.00 0.00 32 1010.3
20260503233446 83 176 3.0 3.0 0.00 0.00 0.00 34 1010.3
20260503232943 83 164 2.0 2.0 0.00 0.00 0.00 37 1010.3
20260503232439 83 244 2.0 3.0 0.00 0.00 0.00 33 1010.6
20260503231937 84 150 2.0 2.0 0.00 0.00 0.00 36 1010.6
20260503231435 84 244 1.0 1.0 0.00 0.00 0.00 36 1010.6
20260503230931 85 243 2.0 2.0 0.00 0.00 0.00 32 1010.6
20260503230428 84 253 1.0 1.0 0.00 0.00 0.00 34 1010.6
20260503225925 84 197 3.0 3.0 0.00 0.00 0.00 34 1010.6
20260503225422 85 213 3.0 5.0 0.00 0.00 0.00 35 1010.6
20260503224918 86 216 2.0 2.0 0.00 0.00 0.00 32 1010.9
20260503224415 85 230 0.0 0.0 0.00 0.00 0.00 32 1010.9
20260503223912 85 142 2.0 3.0 0.00 0.00 0.00 35 1011.3
20260503223410 85 215 2.0 2.0 0.00 0.00 0.00 32 1011.3
20260503222910 85 216 4.0 5.0 0.00 0.00 0.00 30 1011.3
20260503222409 85 233 3.0 5.0 0.00 0.00 0.00 35 1011.3
20260503221907 84 258 4.0 5.0 0.00 0.00 0.00 31 1011.3
20260503221406 84 274 3.0 3.0 0.00 0.00 0.00 32 1010.9
20260503220901 83 219 1.0 1.0 0.00 0.00 0.00 32 1011.3
20260503220358 85 235 2.0 3.0 0.00 0.00 0.00 33 1011.3
20260503215855 84 200 2.0 2.0 0.00 0.00 0.00 35 1011.3
20260503215352 82 232 1.0 1.0 0.00 0.00 0.00 36 1011.3
20260503214849 83 286 0.0 1.0 0.00 0.00 0.00 41 1011.7
20260503214347 85 97 2.0 3.0 0.00 0.00 0.00 33 1011.3
20260503213844 84 344 3.0 3.0 0.00 0.00 0.00 34 1011.7
20260503213342 84 217 1.0 1.0 0.00 0.00 0.00 34 1011.7
20260503212838 84 252 2.0 2.0 0.00 0.00 0.00 35 1011.7
20260503212336 82 348 1.0 2.0 0.00 0.00 0.00 37 1011.7
20260503211833 82 208 3.0 3.0 0.00 0.00 0.00 35 1012.0
20260503211330 81 168 4.0 5.0 0.00 0.00 0.00 35 1012.0
20260503210825 81 239 3.0 5.0 0.00 0.00 0.00 34 1012.0
20260503210323 82 236 3.0 3.0 0.00 0.00 0.00 36 1011.7
20260503205818 83 270 1.0 2.0 0.00 0.00 0.00 36 1012.0
20260503205314 82 257 2.0 2.0 0.00 0.00 0.00 36 1012.0
20260503204811 82 294 1.0 1.0 0.00 0.00 0.00 38 1012.0
20260503204309 82 300 0.0 1.0 0.00 0.00 0.00 39 1012.4
20260503203806 82 200 2.0 3.0 0.00 0.00 0.00 38 1012.4
20260503203303 81 271 1.0 2.0 0.00 0.00 0.00 38 1012.4
20260503202800 81 228 5.0 6.0 0.00 0.00 0.00 37 1012.4